Location: F?ge?el
(45.8833°N, 22.5833°E)
Time: 05:56:07
(UTC+00:00)

Cosmos 1975 Rocket - Pass Details

Date: 17 November 2025
Orbit: 597 x 626 km, 82.5° (Epoch: 04 December)

Event Time Altitude Azimuth Distance (km) Brightness Sun altitude
Rises 15:49:48 0° 351° (N) 2,870 6.4 -9.4°
Reaches altitude 10° 15:52:02 10° 352° (N) 1,966 5.5 -9.8°
Maximum altitude 15:56:23 84° 80° (E) 620 3.0 -10.5°
Drops below altitude 10° 16:00:45 10° 170° (S) 1,967 5.7 -11.3°
Sets 16:02:58 0° 171° (S) 2,872 6.6 -11.6°
